Theta_e
332 332 335 337 336 335 335 330 330 332 332 337 337 335 338 342 344 348 342 342 345 344 345 343 341 341 339 339 338 336 335 334 334 334 334 334 333 332 331 328 325 324 323 322
333 334 335 333 335 335 333 331 330 332 331 332 335 338 339 343 339 340 340 335 343 342 344 344 343 341 339 339 338 336 335 335 336 335 334 334 334 329 324 322 321 322 323 322
334 333 334 333 333 333 333 333 332 332 330 330 335 339 345 339 336 335 334 339 336 344 345 344 343 341 339 339 336 335 335 335 337 336 334 334 332 330 328 326 322 323 322 321
334 334 334 334 333 335 335 333 332 333 331 331 335 340 345 341 344 342 339 338 337 344 347 343 342 341 339 336 336 335 336 336 327 326 330 331 329 323 320 319 319 321 321 321
333 333 335 334 333 332 333 332 331 332 336 338 338 340 346 344 343 344 342 339 337 341 340 343 341 341 337 336 326 336 334 327 330 325 328 323 325 323 319 322 322 322 319 321
330 330 331 332 332 332 331 330 330 334 335 338 340 342 343 340 338 340 334 333 336 337 344 342 342 343 335 330 331 333 332 334 332 330 329 325 322 324 323 325 324 323 324 321
329 329 330 329 331 331 332 333 333 337 339 342 343 341 345 340 334 334 334 333 336 337 337 343 342 343 342 336 336 334 326 331 325 322 321 325 325 326 326 325 324 322 322 323
330 331 331 333 334 333 332 334 335 339 348 339 336 347 346 338 334 333 334 335 335 338 335 334 336 335 332 330 328 328 326 321 320 317 316 321 326 325 324 324 322 321 320 319
337 333 331 333 332 332 334 337 336 340 340 342 341 340 338 336 337 334 333 336 338 334 331 334 332 330 329 328 325 322 321 321 320 318 322 325 322 322 321 319 317 316 316 316
336 339 335 333 333 333 336 335 338 338 342 343 344 342 344 339 336 335 334 335 336 338 336 334 333 330 327 325 324 323 323 323 323 323 321 321 321 318 317 316 316 315 315 314
338 340 339 335 337 337 339 339 342 341 343 346 344 346 337 336 335 334 332 333 334 334 334 332 330 325 323 323 322 321 322 320 321 319 318 317 316 315 314 314 313 313 313 312
340 343 342 337 337 335 335 338 337 347 339 338 340 346 338 335 332 331 329 330 330 330 329 327 325 324 322 321 320 320 320 320 319 316 315 313 313 312 311 313 310 309 309 308
344 345 345 342 340 340 340 336 335 338 342 342 344 347 339 333 330 329 328 327 328 327 326 325 323 323 322 321 320 320 319 317 315 314 312 312 312 311 312 309 308 310 310 309
341 341 342 339 341 340 341 339 336 341 336 339 342 342 338 333 327 326 326 326 326 326 325 324 323 321 321 321 320 318 316 315 313 313 312 311 311 312 310 310 310 309 309 308
344 343 339 338 336 337 337 335 333 332 334 336 335 339 336 329 325 323 323 322 323 323 322 321 321 320 319 319 317 316 315 313 313 312 311 311 312 310 310 309 309 308 308 308
343 344 342 344 337 337 336 336 332 333 336 333 330 334 329 325 323 322 321 321 321 321 321 320 319 318 319 318 315 315 314 313 312 312 311 311 311 311 309 308 307 308 308 307
346 346 343 343 342 338 341 337 335 335 334 332 332 331 325 324 322 321 321 320 320 320 320 319 319 318 317 316 315 314 313 312 312 312 312 311 311 311 310 309 309 308 307 307
348 350 340 345 340 347 345 338 335 333 333 331 331 329 323 322 321 320 322 322 320 319 320 320 319 317 316 315 314 314 313 313 313 313 313 312 312 311 310 309 308 307 308 309
336 349 345 347 343 339 340 341 336 332 332 333 332 329 323 322 320 323 324 322 321 320 320 319 318 316 315 315 315 314 314 313 313 314 312 313 312 311 309 308 308 308 309 310
335 343 347 344 346 341 340 338 334 331 334 332 329 325 323 322 322 326 322 320 320 319 318 317 317 316 315 315 315 315 315 314 314 313 312 313 313 311 310 308 307 308 309 308
338 342 346 344 345 344 342 334 331 333 341 330 327 325 324 323 323 323 320 319 318 318 318 317 317 316 316 315 315 315 315 315 315 314 312 313 313 311 309 308 308 308 309 308
336 337 344 343 342 342 334 333 339 338 332 328 327 325 324 323 322 321 320 318 319 319 319 318 317 316 316 315 315 315 316 315 314 315 312 312 313 311 309 308 309 309 309 310
344 340 346 341 343 339 332 335 331 329 328 327 326 324 323 322 321 321 319 319 320 319 320 319 319 317 316 315 315 316 315 314 315 314 313 312 313 312 310 309 309 310 309 310
336 336 344 339 337 336 331 328 326 324 324 323 324 322 321 321 319 319 319 321 322 320 319 319 319 319 319 317 315 315 315 314 314 315 313 312 313 311 310 310 310 310 309 309
340 341 333 336 334 330 329 327 324 322 321 322 321 321 321 319 319 320 321 324 322 321 320 320 320 320 320 319 317 315 314 314 314 315 313 313 314 310 311 310 310 310 310 308
333 335 333 335 332 331 331 325 323 322 321 321 321 321 321 321 322 322 323 321 321 321 321 321 320 320 320 320 317 315 313 314 314 315 313 314 313 314 311 310 310 309 309 308
Wind_Speed
14 13 16 21 5 17 25 17 17 13 9 3 20 12 10 18 17 4 18 24 9 11 15 25 23 21 22 18 15 15 18 22 19 17 12 17 18 19 16 8 6 6 5 5
17 7 20 11 13 19 24 18 17 12 13 9 15 17 7 21 13 13 24 21 9 10 12 19 22 23 20 18 17 17 16 19 22 19 18 9 4 6 9 13 14 7 4 6
14 11 17 18 16 19 19 19 12 17 18 17 12 9 15 18 19 22 23 18 22 11 7 16 18 20 19 23 23 19 24 23 12 19 10 8 6 12 15 14 11 12 9 7
7 14 19 16 8 21 22 15 16 16 21 13 9 6 8 11 7 6 13 20 19 8 16 13 15 16 26 22 14 18 23 5 7 25 5 12 7 8 10 10 12 7 10 12
19 19 20 21 19 13 21 19 20 16 14 15 16 6 1 14 10 11 14 15 20 5 0 9 9 13 25 25 21 21 13 2 11 15 15 8 9 8 9 11 13 13 16 12
21 17 20 22 19 15 20 21 15 13 7 6 10 5 3 4 7 2 9 10 6 12 5 12 15 15 20 25 8 12 7 3 6 14 12 12 10 12 9 12 15 22 20 17
20 19 18 14 14 18 23 16 7 11 6 6 13 11 9 13 9 8 6 8 10 10 23 9 7 12 11 12 8 12 9 7 1 5 6 12 11 10 11 12 13 16 20 19
18 17 16 22 27 20 18 13 9 12 4 8 15 2 1 9 8 7 7 9 10 15 20 13 19 21 25 21 18 20 11 6 6 2 12 15 10 12 15 13 12 13 17 19
22 20 16 22 19 17 16 9 10 3 7 5 6 5 3 5 10 10 11 7 12 12 15 6 22 19 14 17 17 13 6 0 5 7 7 7 8 10 13 15 17 18 20 20
14 16 12 5 7 9 2 5 8 3 4 7 5 11 4 2 6 10 12 11 8 15 16 15 16 16 14 9 5 3 6 7 7 7 7 11 13 15 16 17 18 19 21 22
10 12 17 5 6 4 8 5 9 8 4 7 4 4 7 9 10 10 13 13 13 16 13 9 13 13 7 3 3 7 6 11 12 15 15 16 16 18 19 20 21 22 23 24
5 2 5 11 13 11 2 10 15 12 2 6 7 2 8 11 10 8 10 9 12 11 12 11 11 6 9 8 12 11 11 14 15 17 19 18 17 18 19 16 18 25 26 27
1 3 6 4 1 13 4 10 12 14 7 4 6 3 4 8 6 8 7 7 8 7 9 7 9 6 2 8 9 13 13 16 16 17 17 16 16 16 10 16 22 22 24 26
5 7 5 9 17 9 8 11 11 13 4 4 3 9 2 7 4 7 6 4 6 6 5 4 5 11 11 10 12 12 13 13 14 13 14 14 15 10 13 18 21 24 26 27
10 11 14 13 17 4 17 4 4 4 2 5 4 13 13 5 4 6 5 7 6 4 3 8 7 6 10 14 12 10 9 10 10 11 13 16 14 12 16 17 23 25 23 25
6 8 8 15 3 1 17 11 4 1 5 4 9 12 6 6 5 5 5 4 5 6 6 7 7 8 8 9 8 7 9 8 9 11 15 18 9 14 18 22 25 22 25 25
6 8 4 5 15 4 4 6 1 3 5 4 3 7 4 6 5 2 2 3 5 5 3 5 5 8 9 8 6 6 8 9 10 13 16 15 13 13 15 19 19 21 22 23
12 8 5 5 3 8 8 13 7 6 5 5 5 4 4 2 3 3 4 5 5 7 7 7 7 7 6 7 6 5 8 11 13 17 14 17 11 14 16 19 19 23 21 21
12 15 3 1 5 6 4 7 4 4 2 7 2 3 4 3 7 2 8 2 2 4 4 5 6 7 6 5 7 6 9 13 15 14 16 12 10 14 15 13 17 20 21 22
18 23 7 4 9 3 7 17 3 4 3 9 5 4 5 5 4 7 5 4 4 6 6 7 8 8 6 6 7 8 11 12 14 15 14 8 9 16 16 11 15 17 15 22
5 5 4 3 4 4 10 7 1 4 5 4 1 5 2 2 4 4 2 3 5 4 5 7 7 9 7 7 7 9 12 14 14 14 12 8 9 16 9 13 16 14 14 16
4 3 4 2 3 4 8 2 5 4 2 0 3 4 3 3 4 3 1 1 1 3 5 7 7 8 7 7 9 11 12 11 15 12 11 12 9 14 10 14 16 12 9 13
5 1 5 6 2 6 7 9 5 4 3 5 5 5 5 4 6 5 2 2 4 5 9 7 6 6 8 9 10 11 11 13 13 11 8 14 14 15 7 14 20 9 12 13
2 6 3 2 4 7 5 6 3 3 3 6 5 3 3 5 6 6 4 5 6 8 10 10 8 8 10 9 10 12 13 12 10 12 8 14 19 7 8 13 17 9 9 10
7 8 1 6 8 3 6 5 6 6 5 4 5 3 2 4 6 6 6 6 8 9 10 10 10 7 9 13 13 12 11 11 10 10 8 17 14 12 12 14 10 9 8 6
8 7 4 3 5 5 6 3 4 5 6 6 5 7 7 8 8 9 8 12 11 10 11 12 13 11 13 12 12 11 11 11 11 10 11 13 13 13 15 10 11 10 11 10
Wind_Direction
240 236 247 56 330 261 279 304 306 348 338 159 296 291 328 11 357 319 43 327 261 229 187 178 183 187 187 189 173 185 198 206 207 202 214 234 235 238 241 265 175 231 268 302
246 299 297 140 234 251 263 279 284 331 321 305 271 279 309 44 26 54 38 266 287 239 187 176 173 179 178 171 176 194 214 225 212 204 204 247 302 281 290 274 277 265 218 228
246 265 269 293 328 303 297 309 319 312 298 293 325 316 32 14 33 30 16 279 278 272 259 164 173 177 169 169 167 201 221 230 260 220 197 214 252 281 271 255 232 195 205 258
268 245 261 287 279 302 297 309 306 305 293 303 5 325 71 37 30 81 229 252 260 7 290 167 180 148 94 101 179 234 227 230 24 33 243 248 226 272 245 274 279 220 262 277
264 234 245 266 248 236 284 283 290 312 3 10 358 352 65 54 352 276 253 260 273 189 353 116 114 107 119 165 193 218 233 267 315 127 211 253 244 297 350 345 338 325 304 299
276 260 251 237 242 231 255 268 292 323 324 307 32 267 71 110 208 209 29 16 26 5 76 113 97 105 150 169 215 222 242 269 196 183 207 248 268 293 308 285 310 305 303 299
261 273 289 308 289 291 293 286 290 311 338 320 214 238 30 336 26 9 40 5 37 35 32 18 129 166 138 132 190 164 122 112 204 80 282 312 274 248 274 298 300 309 311 320
278 279 290 15 296 298 281 274 262 268 213 229 282 163 248 274 350 4 42 62 33 42 67 338 29 93 91 109 100 104 130 55 18 64 301 298 324 330 324 341 344 328 324 320
305 284 292 173 241 272 300 265 298 197 248 307 232 111 25 304 284 10 8 59 86 92 123 159 87 85 80 92 86 80 94 298 297 282 300 328 9 358 342 338 336 327 314 316
267 276 290 11 340 248 211 0 346 42 4 333 289 113 162 117 33 14 4 48 57 107 114 102 100 99 85 76 68 55 4 340 324 338 17 4 2 354 337 342 339 334 325 322
307 300 291 139 50 357 15 22 14 352 136 213 286 49 346 26 42 8 14 27 41 94 104 104 108 87 62 94 6 33 43 2 25 33 19 5 0 5 359 352 342 335 328 322
28 354 320 313 107 56 331 186 184 241 298 271 263 146 324 346 39 24 18 48 36 22 38 60 69 34 18 28 32 17 30 22 3 11 5 3 7 1 342 340 333 325 318 315
165 69 314 21 180 29 279 292 259 262 285 288 315 139 278 327 29 35 28 41 85 18 35 28 348 11 123 28 33 18 16 7 360 3 351 353 355 329 329 331 334 326 321 318
305 275 195 190 218 173 191 239 235 236 269 298 33 128 33 256 39 46 36 5 71 101 44 322 333 28 60 56 28 11 18 6 3 352 347 341 318 320 344 332 328 321 318 315
289 283 271 283 288 314 341 192 226 331 337 290 166 144 208 102 47 46 23 3 24 18 349 22 31 10 5 35 20 20 7 357 350 345 331 315 319 350 336 328 327 323 319 318
268 268 316 335 77 143 280 292 197 56 21 320 17 91 70 79 61 42 16 17 16 19 30 3 9 349 16 16 356 354 2 344 338 324 313 312 336 6 354 339 335 333 331 328
205 224 104 247 302 162 296 324 113 228 105 95 342 68 53 33 15 9 76 54 19 2 4 339 11 23 31 351 10 21 332 328 312 307 308 329 359 9 338 339 330 338 329 328
306 246 233 276 332 258 174 240 19 331 110 115 155 86 27 51 304 280 133 65 4 359 2 356 348 357 8 340 322 339 317 314 314 309 332 341 17 351 347 337 348 334 337 335
351 313 219 141 340 289 269 3 324 357 342 151 56 85 19 14 293 355 81 14 18 355 354 344 338 335 341 317 310 305 309 306 309 331 341 4 10 346 343 339 348 341 341 342
269 251 270 134 222 251 227 193 169 282 138 77 61 354 16 13 322 79 34 17 14 24 0 342 324 323 313 310 318 299 289 301 309 331 340 3 354 335 326 347 338 326 337 345
353 3 286 31 291 73 266 104 185 259 88 110 353 332 352 313 8 33 356 38 41 12 335 326 301 268 269 290 283 288 291 292 311 309 337 339 337 324 337 338 320 315 336 351
153 229 347 289 353 6 343 63 28 94 169 159 330 337 337 12 341 301 220 254 307 306 311 297 307 298 276 276 272 271 274 293 300 314 332 325 313 316 326 316 311 311 342 337
179 209 306 15 101 172 64 72 85 45 339 337 348 8 355 333 317 295 313 282 262 283 273 285 283 286 280 274 266 266 279 290 295 315 327 316 303 309 311 311 305 331 350 351
183 255 245 230 140 105 93 114 81 26 3 331 350 339 4 338 312 311 282 268 260 277 292 296 289 297 301 288 280 281 283 283 296 300 316 304 295 295 293 302 297 347 345 346
197 194 294 43 50 42 95 56 28 1 9 352 333 323 332 308 298 291 282 273 275 280 282 287 292 287 299 298 282 275 281 283 279 280 291 287 291 318 294 288 294 287 292 295
33 25 32 65 68 27 74 26 21 7 1 349 334 318 304 278 257 250 250 257 267 276 289 291 286 279 276 276 283 280 276 273 269 259 269 282 309 289 294 311 308 285 255 262